TimeCDT,TemperatureF,Dew PointF,Humidity,Sea Level PressureIn,VisibilityMPH,Wind Direction,Wind SpeedMPH,Gust SpeedMPH,PrecipitationIn,Events,Conditions,WindDirDegrees,DateUTC
12:53 AM,69.1,64.9,87,30.08,10.0,SSE,4.6,-,N/A,,Scattered Clouds,150,2013-07-14 05:53:00
1:53 AM,68.0,64.0,87,30.07,10.0,SSE,4.6,-,N/A,,Overcast,150,2013-07-14 06:53:00
2:53 AM,68.0,63.0,84,30.06,10.0,SSE,3.5,-,N/A,,Overcast,160,2013-07-14 07:53:00
3:53 AM,68.0,63.0,84,30.08,10.0,SE,3.5,-,N/A,,Overcast,130,2013-07-14 08:53:00
4:53 AM,66.9,63.0,87,30.08,10.0,SE,3.5,-,N/A,,Overcast,140,2013-07-14 09:53:00
5:53 AM,66.9,62.1,84,30.07,10.0,SSE,5.8,-,N/A,,Overcast,150,2013-07-14 10:53:00
6:44 AM,68.0,62.6,83,30.08,10.0,SSE,5.8,-,N/A,,Overcast,160,2013-07-14 11:44:00
6:53 AM,68.0,61.0,78,30.08,10.0,SSE,3.5,-,N/A,,Overcast,150,2013-07-14 11:53:00
7:16 AM,68.0,60.8,78,30.09,10.0,Variable,3.5,-,N/A,,Overcast,0,2013-07-14 12:16:00
7:53 AM,68.0,61.0,78,30.10,10.0,South,4.6,-,N/A,,Overcast,190,2013-07-14 12:53:00
8:53 AM,68.0,62.1,81,30.11,10.0,Variable,3.5,-,N/A,,Overcast,0,2013-07-14 13:53:00
9:06 AM,68.0,62.6,83,30.12,6.0,Variable,6.9,-,0.00,Rain,Light Rain,0,2013-07-14 14:06:00
9:53 AM,66.9,64.0,90,30.13,2.5,Calm,Calm,-,0.01,Rain,Light Rain,0,2013-07-14 14:53:00
10:04 AM,66.2,64.4,94,30.14,1.8,Calm,Calm,-,0.03,Rain,Rain,0,2013-07-14 15:04:00
10:07 AM,66.2,64.4,94,30.14,2.0,Calm,Calm,-,0.04,Rain-Thunderstorm,Rain,0,2013-07-14 15:07:00
10:14 AM,66.2,64.4,94,30.14,2.0,Variable,3.5,-,0.06,Rain-Thunderstorm,Heavy Thunderstorms and Rain,0,2013-07-14 15:14:00
10:19 AM,66.2,64.4,94,30.14,1.8,SW,8.1,-,0.08,Rain-Thunderstorm,Heavy Thunderstorms and Rain,230,2013-07-14 15:19:00
10:31 AM,66.2,62.6,88,30.14,1.2,SSW,6.9,-,0.15,Rain-Thunderstorm,Heavy Thunderstorms and Rain,210,2013-07-14 15:31:00
10:36 AM,66.2,62.6,88,30.14,0.8,SW,9.2,-,0.24,Rain-Thunderstorm,Heavy Thunderstorms and Rain,220,2013-07-14 15:36:00
10:44 AM,66.2,62.6,88,30.14,0.8,Variable,4.6,-,0.32,Rain-Thunderstorm,Heavy Rain,0,2013-07-14 15:44:00
10:47 AM,66.2,62.6,88,30.14,1.0,SW,5.8,-,0.33,Rain,Rain,220,2013-07-14 15:47:00
10:53 AM,66.0,63.0,90,30.14,1.5,SW,4.6,-,0.37,Rain,Rain,220,2013-07-14 15:53:00
11:12 AM,66.2,64.4,94,30.15,1.0,WSW,4.6,-,0.15,Rain-Thunderstorm,Heavy Thunderstorms and Rain,240,2013-07-14 16:12:00
11:21 AM,66.2,64.4,94,30.15,2.5,West,4.6,-,0.17,Rain,Rain,260,2013-07-14 16:21:00
11:23 AM,66.2,64.4,94,30.15,3.0,WSW,6.9,-,0.17,Rain-Thunderstorm,Light Rain,250,2013-07-14 16:23:00
11:53 AM,66.9,64.0,90,30.15,5.0,Calm,Calm,-,0.18,Rain-Thunderstorm,Light Rain,0,2013-07-14 16:53:00
11:57 AM,66.2,64.4,94,30.16,5.0,Calm,Calm,-,0.01,Rain,Light Rain,0,2013-07-14 16:57:00
12:49 PM,68.0,64.4,88,30.15,7.0,South,3.5,-,0.04,Rain,Light Rain,190,2013-07-14 17:49:00
12:53 PM,68.0,64.9,90,30.15,8.0,Calm,Calm,-,0.04,Rain,Light Rain,0,2013-07-14 17:53:00
1:53 PM,69.1,66.0,90,30.16,8.0,Calm,Calm,-,0.00,Rain,Light Rain,0,2013-07-14 18:53:00
2:04 PM,69.8,66.2,88,30.16,7.0,Variable,3.5,-,0.01,Rain,Light Rain,0,2013-07-14 19:04:00
2:53 PM,69.1,66.9,93,30.17,7.0,SSW,3.5,-,0.01,Rain,Light Rain,210,2013-07-14 19:53:00
3:01 PM,69.8,66.2,88,30.17,4.0,Variable,3.5,-,0.00,Rain,Light Rain,0,2013-07-14 20:01:00
3:07 PM,69.8,66.2,88,30.17,2.5,SSW,3.5,-,0.02,Rain,Rain,210,2013-07-14 20:07:00
3:30 PM,69.8,66.2,88,30.18,2.0,Variable,3.5,-,0.06,Rain,Rain,0,2013-07-14 20:30:00
3:37 PM,69.8,66.2,88,30.18,2.5,Calm,Calm,-,0.08,Rain,Rain,0,2013-07-14 20:37:00
3:53 PM,69.1,66.9,93,30.18,3.0,Variable,4.6,-,0.11,Rain,Light Rain,0,2013-07-14 20:53:00
4:01 PM,69.8,66.2,88,30.18,5.0,Variable,3.5,-,0.00,Rain,Light Rain,0,2013-07-14 21:01:00
4:53 PM,69.1,66.0,90,30.19,5.0,SW,3.5,-,0.04,Rain,Light Rain,220,2013-07-14 21:53:00
5:06 PM,69.8,66.2,88,30.18,5.0,Calm,Calm,-,0.01,Rain,Light Rain,0,2013-07-14 22:06:00
5:35 PM,69.8,66.2,88,30.18,4.0,SSW,3.5,-,0.02,Rain,Light Rain,200,2013-07-14 22:35:00
5:46 PM,69.8,66.2,88,30.18,5.0,South,3.5,-,0.02,Rain,Light Rain,190,2013-07-14 22:46:00
5:53 PM,69.1,66.9,93,30.18,5.0,Calm,Calm,-,0.03,Rain,Light Rain,0,2013-07-14 22:53:00
6:53 PM,69.1,66.9,93,30.19,4.0,Calm,Calm,-,0.03,Rain,Light Rain,0,2013-07-14 23:53:00
7:53 PM,69.1,66.9,93,30.19,4.0,Calm,Calm,-,0.03,Rain,Light Rain,0,2013-07-15 00:53:00
8:13 PM,69.8,66.2,88,30.20,5.0,Calm,Calm,-,0.01,Rain,Light Rain,0,2013-07-15 01:13:00
8:29 PM,69.8,66.2,88,30.20,4.0,SSW,3.5,-,0.01,Rain,Light Rain,200,2013-07-15 01:29:00
8:53 PM,69.1,66.0,90,30.20,3.0,SSW,3.5,-,0.03,Rain,Light Rain,210,2013-07-15 01:53:00
9:04 PM,69.8,66.2,88,30.21,4.0,Calm,Calm,-,0.01,Rain,Light Rain,0,2013-07-15 02:04:00
9:12 PM,69.8,66.2,88,30.21,4.0,Calm,Calm,-,0.01,Rain,Light Rain,0,2013-07-15 02:12:00
9:53 PM,68.0,64.9,90,30.22,10.0,Calm,Calm,-,0.03,,Overcast,0,2013-07-15 02:53:00
10:53 PM,68.0,64.9,90,30.22,10.0,Calm,Calm,-,0.00,,Overcast,0,2013-07-15 03:53:00
11:53 PM,66.9,64.0,90,30.23,10.0,Calm,Calm,-,N/A,,Overcast,0,2013-07-15 04:53:00